Location: Glens Falls
(43.3090°N, 73.6440°W)
Time: 21:54:29
(UTC-05:00)

Daily predictions for brighter satellites

Satellite Brightness Start Highest point End
(mag) Time Altitude Azimuth Time Altitude Azimuth Time Altitude Azimuth
Cosmos 1048 Rocket 4.5 16:47:27 10° NNW 16:52:44 70° WSW 16:58:03 10° S
Okean 1 Rocket 3.9 16:50:04 10° NNW 16:54:19 54° W 16:58:33 10° S
SL-16 R/B 4.4 16:49:35 10° N 16:54:31 26° WNW 16:59:28 10° WSW
Cosmos 1484 Rocket 4.3 16:52:48 10° ESE 16:55:06 16° ENE 16:57:24 10° NNE
Cosmos 1633 3.7 16:53:42 10° NNW 16:57:10 47° W 17:00:37 10° SSW
Cosmos 1544 Rocket 4.0 16:54:44 10° N 16:59:00 43° ENE 17:03:15 10° SSE
COSMO-SKYMED 1 4.1 16:57:58 10° NE 17:00:47 17° E 17:03:35 10° SE
Cosmos 1975 Rocket 3.0 16:59:27 10° S 17:03:45 87° E 17:08:07 10° N
Cosmos 2263 Rocket 3.9 17:01:48 10° WSW 17:06:34 28° NW 17:11:25 10° N
BREEZE-M DEB (TANK) 4.2 16:59:07 10° W 17:08:57 47° NNW 17:12:59 12° NE
PAYLOAD A 4.0 17:06:34 10° S 17:11:22 81° WSW 17:16:23 10° NNW
GEOS 3 Rocket 4.2 17:14:33 10° ESE 17:19:08 35° NE 17:23:45 10° NNW
Cosmos 1536 Rocket 4.0 17:16:13 10° SSE 17:20:23 41° E 17:24:36 10° NNE
SJ-7 4.4 17:18:20 10° SSE 17:22:33 75° ENE 17:26:49 10° N
USA 234 3.4 17:16:32 10° NE 17:23:04 77° NW 17:29:36 10° WSW
Tiangong 1 3.4 17:22:34 10° S 17:24:06 13° SSE 17:25:29 10° ESE
SPOT 3 Rocket 3.6 17:20:14 10° SSE 17:25:26 87° WSW 17:30:39 10° NNW
Okean 1 3.7 17:23:41 10° SSE 17:27:30 41° E 17:31:20 10° NNE
YAOGAN 1 2.6 17:24:07 10° SSE 17:28:26 89° SW 17:32:48 10° NNW
Meteor 1-18 Rocket 4.2 17:23:01 10° S 17:28:34 64° E 17:34:15 10° NNE
Cosmos 1844 Rocket 2.9 17:26:03 10° SSW 17:31:37 71° WNW 17:37:15 10° NNE
Cosmos 1812 2.6 17:28:01 10° S 17:31:50 66° E 17:35:41 10° NNE
CZ-4 R/B 4.3 17:28:55 10° SSE 17:33:02 77° ENE 17:37:13 10° N
BREEZE M DEB (TANK) 3.9 17:24:06 10° SW 17:33:13 37° SSE 17:35:33 19° E
COSMOS 2487 3.3 17:32:50 10° N 17:36:03 30° ENE 17:38:37 14° ESE
EP 2 4.3 17:35:01 10° SSW 17:37:35 59° ESE 17:38:30 33° ENE
Cosmos 921 Rocket 4.4 17:34:46 10° SE 17:37:43 19° E 17:37:43 19° E
USA 32 4.2 17:33:15 10° S 17:38:28 76° W 17:43:42 10° N
NOSS 3-3 (A) 4.1 17:32:51 10° SSW 17:38:54 59° ESE 17:44:01 17° NE
NOSS 3-3 (C) 4.1 17:32:59 10° SSW 17:39:00 58° ESE 17:44:05 17° NE
SL-8 Rocket 4.3 17:33:11 10° NNW 17:39:18 68° W 17:45:23 10° S
FALCON 9 R/B 4.4 17:10:55 10° WSW 17:39:33 50° S 17:46:24 14° ESE
ISS -2.4 17:37:31 10° W 17:40:39 39° NNW 17:42:12 23° NNE
Cosmos 1346 Rocket 3.2 17:39:50 10° SSE 17:43:29 39° E 17:45:21 24° NE
IDEFIX/ARIANE 42P 3.1 17:40:53 10° S 17:46:01 61° W 17:51:10 10° NNW
ASTRO F (AKARI) 4.1 17:43:38 15° NNE 17:46:12 88° ESE 17:49:20 10° SSW
ATLAS 2AS CENTAUR R/B 3.3 17:38:39 10° NW 17:46:44 74° WSW 17:54:14 10° SSE
Cosmos 494 Rocket 4.1 17:41:30 10° NNW 17:46:45 79° WSW 17:52:00 10° SSE
Cosmos 1844 3.9 17:42:50 10° SSW 17:48:22 69° WNW 17:53:56 10° NNE
Cosmos 1455 Rocket 3.3 17:44:05 10° NNW 17:48:29 72° W 17:52:52 10° S
SKYMED 2 3.7 17:45:30 14° NNE 17:49:11 53° E 17:53:25 10° S
Cosmos 2366 rocket 4.2 17:44:13 10° N 17:50:34 77° W 17:56:51 10° S
Cosmos 2297 4.2 17:45:33 10° S 17:50:40 37° ESE 17:53:06 25° ENE
Okean 1-7 Rocket 4.2 17:49:41 10° SSE 17:53:46 34° E 17:54:42 31° ENE
CZ-3B DEB 2.4 17:51:50 10° WSW 17:55:44 80° NW 18:02:20 20° NE
MSX 4.1 17:52:57 10° S 17:58:42 73° WSW 18:04:28 10° NNW
Thor Agena Rocket 4.5 17:56:09 10° N 18:01:08 49° WNW 18:06:10 10° SW
Cosmos 1809 Rocket 4.3 17:55:52 10° N 18:02:03 76° E 18:08:10 10° SSE
CZ-4 R/B 3.9 17:59:37 10° SSW 18:03:06 25° W 18:06:34 10° NW
Abrixas 3.3 18:01:13 10° WNW 18:03:36 37° N 18:03:36 37° N
SL-24 DEB 4.4 17:59:18 10° N 18:04:05 79° W 18:08:45 10° S
Cosmos 2278 Rocket 2.2 17:59:11 10° SSW 18:04:50 83° WNW 18:09:21 17° NNE
Cosmos 1238 Rocket 4.1 18:05:23 10° SW 18:07:59 28° WNW 18:10:42 10° NNW
Timation 2 Rocket 4.1 18:03:02 10° NNW 18:09:50 68° ENE 18:16:42 10° SE
BREEZE-M R/B 4.0 17:59:35 10° WSW 18:10:04 87° SSE 18:12:19 37° ENE
CZ-2C R/B 4.2 18:05:46 10° SSW 18:10:16 34° W 18:14:55 10° NNW
Cosmos 1975 3.4 18:06:49 10° NNW 18:10:50 58° W 18:14:48 10° S
Meteor 1-19 Rocket 4.3 18:09:19 10° S 18:14:57 56° E 18:18:27 23° NNE
Cosmos 2239 Rocket 4.5 18:09:44 10° N 18:15:52 57° ENE 18:21:54 10° SSE
Genesis I 3.3 18:18:06 10° NW 18:22:02 73° WSW 18:23:19 40° SSE
Cosmos 1821 Rocket 3.8 18:19:23 10° N 18:25:28 64° E 18:31:29 10° SSE
NOAA 12 3.9 18:20:38 10° SSE 18:25:54 77° ENE 18:31:11 10° N
DMSP B5D1-3 4.5 18:25:26 18° NNE 18:29:16 84° WNW 18:34:24 10° SSW
Cosmos 1484 Rocket 4.2 18:25:47 10° SSW 18:29:17 37° W 18:32:47 10° NNW
Cosmos 2082 Rocket 2.0 18:23:36 10° NNW 18:29:18 79° ENE 18:33:41 18° SSE
TIMED 4.3 18:25:29 10° SSW 18:29:51 82° ESE 18:30:00 80° ENE
SL-8 R/B 3.6 18:25:29 10° WSW 18:30:15 78° NNW 18:30:50 67° NE
Cosmos 1833 Rocket 2.5 18:25:17 10° NNW 18:30:57 70° ENE 18:33:05 39° SE
Meteor 1-13 Rocket 4.2 18:26:35 10° S 18:32:15 87° W 18:37:11 15° N
METEOR-M 4.0 18:28:42 10° SSE 18:34:01 77° ENE 18:39:22 10° N
NOSS 2-1 (D) 4.5 18:31:15 10° SSW 18:33:30 32° S 18:33:30 32° S
COSMO-SKYMED 1 3.5 18:34:05 17° N 18:37:11 46° WNW 18:41:20 10° SW
Meteor 1-23 Rocket 4.4 18:38:40 10° S 18:43:21 53° SE 18:43:21 53° SE
Meteor 1-28 Rocket 4.0 18:45:29 50° WSW 18:45:29 50° WSW 18:48:37 10° SSW
Nadezhda 3 Rocket 4.5 18:43:15 10° SSW 18:49:20 59° W 18:55:33 10° N
Timation 1 Rocket 4.2 18:48:36 10° SSW 18:54:34 86° WNW 18:55:27 66° NNE
GEOS 3 Rocket 4.4 18:53:31 18° S 18:57:04 47° WSW 19:02:00 10° NW
Meteor 2-4 Rocket 3.6 18:53:46 10° S 18:58:30 70° SSW 18:58:30 70° SSW
Tiangong 1 4.3 18:56:55 10° WSW 18:57:12 12° WSW 18:57:12 12° WSW
USA 234 4.3 19:03:52 30° N 19:05:31 34° NNW 19:11:15 10° W
ATLAS 3B CENTAUR R/B 4.2 19:00:37 10° WSW 19:13:15 30° SSW 19:15:58 25° SSE
BREEZE M DEB (TANK) 3.8 19:16:59 10° WNW 19:21:28 89° SW 19:21:54 81° SE
NOSS 3-4 (A) 3.7 19:15:27 10° NW 19:22:00 79° NNW 19:22:00 79° NNW
NOSS 3-4 (C) 3.7 19:15:34 10° NW 19:22:03 78° NNW 19:22:03 78° NNW
CZ-3B DEB 4.3 20:25:54 10° WNW 20:30:57 41° NNW 20:30:57 41° NNW
